| time (UTC) | temp F | wind direction | speed knots | gust knots | rain 1hr in | rain 24hr in | rain mn in | humidity % | barometer mb |
| 20260506020304 | 33 | 330 | 1.7 | 5.2 | 0.08 | 0.57 | 0.49 | 95 | 1008.1 |
| 20260506015805 | 33 | 329 | 2.6 | 5.2 | 0.06 | 0.55 | 0.47 | 95 | 1008.1 |
| 20260506015306 | 33 | 335 | 4.3 | 7.0 | 0.05 | 0.53 | 0.45 | 94 | 1008.1 |
| 20260506014304 | 33 | 353 | 3.5 | 7.8 | 0.02 | 0.50 | 0.42 | 94 | 1008.1 |
| 20260506012805 | 33 | 343 | 3.5 | 5.2 | 0.01 | 0.49 | 0.41 | 94 | 1008.1 |
| 20260506011804 | 33 | 346 | 3.5 | 7.8 | 0.01 | 0.49 | 0.41 | 94 | 1008.1 |
| 20260506010804 | 33 | 343 | 3.5 | 6.1 | 0.01 | 0.49 | 0.41 | 94 | 1008.1 |
| 20260506010304 | 33 | 359 | 3.5 | 7.0 | 0.01 | 0.49 | 0.41 | 94 | 1008.1 |
| 20260506005805 | 33 | 351 | 2.6 | 6.1 | 0.01 | 0.49 | 0.41 | 94 | 1008.1 |
| 20260506003805 | 33 | 350 | 2.6 | 5.2 | 0.00 | 0.48 | 0.40 | 94 | 1008.1 |
| 20260506003304 | 33 | 330 | 2.6 | 7.0 | 0.00 | 0.48 | 0.40 | 94 | 1008.1 |
| 20260506002804 | 33 | 327 | 3.5 | 6.1 | 0.00 | 0.48 | 0.40 | 94 | 1008.1 |
| 20260506002306 | 33 | 349 | 4.3 | 7.8 | 0.00 | 0.48 | 0.40 | 94 | 1008.1 |
| 20260506001304 | 33 | 326 | 3.5 | 7.0 | 0.00 | 0.48 | 0.40 | 94 | 1008.1 |
| 20260506000804 | 33 | 350 | 2.6 | 6.1 | 0.00 | 0.48 | 0.40 | 94 | 1008.1 |
| 20260506000304 | 33 | 348 | 5.2 | 8.7 | 0.00 | 0.48 | 0.40 | 94 | 1008.1 |
| 20260505235804 | 32 | 340 | 2.6 | 7.0 | 0.00 | 0.48 | 0.40 | 94 | 1008.1 |
| 20260505234804 | 32 | 329 | 4.3 | 7.0 | 0.01 | 0.48 | 0.40 | 94 | 1008.1 |
| 20260505231804 | 33 | 330 | 4.3 | 8.7 | 0.02 | 0.48 | 0.40 | 93 | 1008.1 |
| 20260505231304 | 33 | 345 | 4.3 | 7.0 | 0.02 | 0.48 | 0.40 | 93 | 1008.1 |
| 20260505230804 | 33 | 335 | 4.3 | 12.2 | 0.03 | 0.48 | 0.40 | 93 | 1008.1 |
| 20260505225804 | 35 | 306 | 8.7 | 13.9 | 0.03 | 0.48 | 0.40 | 93 | 1008.1 |
| 20260505225305 | 35 | 332 | 7.0 | 13.9 | 0.03 | 0.48 | 0.40 | 93 | 1008.1 |
| 20260505224304 | 36 | 332 | 6.1 | 10.4 | 0.03 | 0.47 | 0.39 | 93 | 1008.1 |
| 20260505223804 | 36 | 329 | 5.2 | 12.2 | 0.03 | 0.46 | 0.38 | 93 | 1008.1 |
| 20260505221804 | 37 | 334 | 7.8 | 12.2 | 0.04 | 0.46 | 0.38 | 93 | 1008.1 |
| 20260505220804 | 36 | 335 | 4.3 | 10.4 | 0.05 | 0.45 | 0.37 | 93 | 1008.1 |
| 20260505220304 | 37 | 347 | 7.0 | 11.3 | 0.05 | 0.45 | 0.37 | 94 | 1008.1 |
| 20260505214304 | 36 | 346 | 4.3 | 10.4 | 0.05 | 0.44 | 0.36 | 93 | 1008.1 |
| 20260505211304 | 39 | 355 | 4.3 | 7.8 | 0.04 | 0.41 | 0.33 | 92 | 1008.1 |
| 20260505210804 | 39 | 30 | 5.2 | 8.7 | 0.03 | 0.40 | 0.32 | 92 | 1008.1 |
| 20260505210304 | 39 | 355 | 4.3 | 7.8 | 0.03 | 0.40 | 0.32 | 92 | 1008.1 |
| 20260505205804 | 39 | 29 | 4.3 | 6.1 | 0.02 | 0.39 | 0.31 | 92 | 1008.1 |
| 20260505205305 | 39 | 7 | 5.2 | 7.0 | 0.02 | 0.39 | 0.31 | 93 | 1008.1 |
| 20260505204804 | 39 | 354 | 4.3 | 7.0 | 0.02 | 0.39 | 0.31 | 92 | 1008.1 |
| 20260505203304 | 39 | 22 | 4.3 | 10.4 | 0.02 | 0.39 | 0.31 | 92 | 1008.1 |
| 20260505202804 | 39 | 41 | 5.2 | 8.7 | 0.01 | 0.38 | 0.30 | 92 | 1008.1 |
| 20260505202306 | 39 | 11 | 5.2 | 7.8 | 0.01 | 0.38 | 0.30 | 92 | 1008.1 |
| 20260505200804 | 39 | 354 | 5.2 | 8.7 | 0.00 | 0.37 | 0.29 | 92 | 1008.1 |
| 20260505195305 | 39 | 5 | 6.1 | 10.4 | 0.00 | 0.37 | 0.29 | 91 | 1008.1 |
| 20260505194304 | 39 | 14 | 5.2 | 7.8 | 0.00 | 0.37 | 0.29 | 91 | 1008.1 |
| 20260505192305 | 40 | 21 | 4.3 | 7.0 | 0.00 | 0.37 | 0.29 | 92 | 1008.1 |
| 20260505191304 | 39 | 26 | 2.6 | 5.2 | 0.01 | 0.37 | 0.29 | 91 | 1008.1 |
| 20260505190804 | 39 | 9 | 5.2 | 7.0 | 0.01 | 0.37 | 0.29 | 92 | 1008.1 |
| 20260505183804 | 39 | 46 | 3.5 | 7.0 | 0.02 | 0.37 | 0.29 | 93 | 1008.1 |
| 20260505183304 | 39 | 54 | 4.3 | 6.1 | 0.02 | 0.37 | 0.29 | 93 | 1008.1 |
| 20260505182804 | 39 | 58 | 3.5 | 6.1 | 0.03 | 0.37 | 0.29 | 94 | 1008.1 |
| 20260505181305 | 38 | 50 | 2.6 | 8.7 | 0.02 | 0.36 | 0.28 | 93 | 1008.1 |
| 20260505180804 | 38 | 44 | 1.7 | 5.2 | 0.02 | 0.36 | 0.28 | 93 | 1008.1 |
| 20260505175804 | 38 | 45 | 4.3 | 6.1 | 0.02 | 0.36 | 0.28 | 93 | 1008.0 |
| 20260505175305 | 38 | 30 | 4.3 | 7.0 | 0.02 | 0.36 | 0.28 | 93 | 1008.0 |
| 20260505173804 | 38 | 19 | 2.6 | 4.3 | 0.02 | 0.35 | 0.27 | 93 | 1008.0 |
| 20260505171304 | 38 | 0 | 2.6 | 4.3 | 0.02 | 0.34 | 0.26 | 94 | 1008.0 |
| 20260505170804 | 38 | 322 | 4.3 | 5.2 | 0.02 | 0.34 | 0.26 | 94 | 1008.0 |
| 20260505165306 | 37 | 18 | 2.6 | 5.2 | 0.03 | 0.34 | 0.26 | 93 | 1008.0 |
| 20260505164804 | 37 | 339 | 1.7 | 4.3 | 0.02 | 0.33 | 0.25 | 94 | 1008.0 |
| 20260505162306 | 37 | 44 | 1.7 | 4.3 | 0.01 | 0.32 | 0.24 | 94 | 1008.0 |
| 20260505161804 | 37 | 358 | 3.5 | 6.1 | 0.01 | 0.32 | 0.24 | 94 | 1008.0 |
| 20260505161305 | 37 | 15 | 2.6 | 4.3 | 0.01 | 0.32 | 0.24 | 94 | 1008.0 |
| 20260505160804 | 37 | 5 | 1.7 | 4.3 | 0.01 | 0.32 | 0.24 | 94 | 1008.0 |
| 20260505160304 | 37 | 352 | 3.5 | 6.1 | 0.01 | 0.32 | 0.24 | 94 | 1008.0 |
| 20260505153304 | 36 | 322 | 2.6 | 7.0 | 0.02 | 0.31 | 0.23 | 94 | 1008.0 |
| 20260505152305 | 36 | 318 | 3.5 | 6.1 | 0.02 | 0.31 | 0.23 | 94 | 1008.0 |
| 20260505151804 | 36 | 254 | 1.7 | 4.3 | 0.02 | 0.31 | 0.23 | 94 | 1008.0 |
| 20260505150804 | 36 | 278 | 1.7 | 5.2 | 0.03 | 0.31 | 0.23 | 94 | 1008.0 |
| 20260505123804 | 36 | 343 | 5.2 | 10.4 | 0.04 | 0.23 | 0.15 | 93 | 1008.0 |
| 20260505122305 | 36 | 351 | 7.8 | 11.3 | 0.04 | 0.22 | 0.14 | 93 | 1008.0 |
| 20260505121804 | 36 | 345 | 6.1 | 12.2 | 0.04 | 0.22 | 0.14 | 93 | 1008.0 |
| 20260505120305 | 37 | 350 | 7.8 | 10.4 | 0.04 | 0.21 | 0.13 | 92 | 1005.6 |
| 20260505115804 | 37 | 341 | 7.0 | 10.4 | 0.04 | 0.21 | 0.13 | 92 | 1005.6 |
| 20260505115305 | 37 | 355 | 6.1 | 13.0 | 0.04 | 0.21 | 0.13 | 92 | 1005.6 |
| 20260505114304 | 37 | 333 | 7.8 | 10.4 | 0.03 | 0.20 | 0.12 | 91 | 1005.6 |
| 20260505113304 | 38 | 356 | 6.1 | 11.3 | 0.02 | 0.18 | 0.10 | 90 | 1005.6 |
| 20260505112804 | 39 | 349 | 7.8 | 13.0 | 0.02 | 0.18 | 0.10 | 90 | 1005.6 |
| 20260505111804 | 39 | 1 | 7.8 | 14.8 | 0.03 | 0.18 | 0.10 | 90 | 1005.6 |
| 20260505111304 | 39 | 8 | 8.7 | 14.8 | 0.03 | 0.18 | 0.10 | 91 | 1005.6 |
| 20260505101304 | 41 | 350 | 4.3 | 10.4 | 0.03 | 0.15 | 0.07 | 91 | 1005.6 |
| 20260505100804 | 41 | 3 | 7.0 | 10.4 | 0.02 | 0.14 | 0.06 | 91 | 1005.6 |
| 20260505095305 | 41 | 4 | 6.1 | 10.4 | 0.01 | 0.13 | 0.05 | 91 | 1005.6 |
| 20260505094304 | 41 | 11 | 6.1 | 10.4 | 0.01 | 0.12 | 0.04 | 91 | 1005.6 |
| 20260505093304 | 42 | 11 | 5.2 | 8.7 | 0.02 | 0.12 | 0.04 | 92 | 1005.6 |
| 20260505090804 | 43 | 2 | 5.2 | 10.4 | 0.04 | 0.12 | 0.04 | 92 | 1005.6 |
| 20260505090304 | 43 | 7 | 4.3 | 10.4 | 0.04 | 0.12 | 0.04 | 92 | 1005.6 |
| 20260505085804 | 43 | 16 | 5.2 | 8.7 | 0.04 | 0.12 | 0.04 | 92 | 1005.6 |
| 20260505085305 | 44 | 6 | 2.6 | 7.8 | 0.04 | 0.12 | 0.04 | 92 | 1005.6 |
| 20260505083803 | 44 | 299 | 1.7 | 5.2 | 0.02 | 0.10 | 0.02 | 91 | 1005.6 |
| 20260505080304 | 48 | 22 | 2.6 | 4.3 | 0.00 | 0.08 | 0.00 | 91 | 1005.6 |
| 20260505074804 | 48 | 0 | 1.7 | 2.6 | 0.00 | 0.08 | 0.00 | 92 | 1005.6 |
| 20260505074304 | 48 | 4 | 1.7 | 2.6 | 0.00 | 0.08 | 0.00 | 90 | 1005.6 |
| 20260505073304 | 48 | 144 | 1.7 | 2.6 | 0.00 | 0.08 | 0.00 | 90 | 1005.6 |
| 20260505072804 | 48 | 144 | 0.0 | 0.0 | 0.00 | 0.08 | 0.00 | 90 | 1005.6 |
| 20260505072305 | 48 | 144 | 0.0 | 0.0 | 0.00 | 0.08 | 0.00 | 90 | 1005.6 |
| 20260505070304 | 48 | 144 | 0.0 | 1.7 | 0.00 | 0.08 | 0.00 | 90 | 1005.6 |
| 20260505065804 | 48 | 144 | 0.0 | 1.7 | 0.00 | 0.08 | 0.00 | 90 | 1005.6 |
| 20260505064304 | 48 | 144 | 0.0 | 0.0 | 0.00 | 0.08 | 0.00 | 89 | 1005.6 |
| 20260505063804 | 48 | 144 | 0.0 | 0.0 | 0.00 | 0.08 | 0.00 | 89 | 1005.6 |
| 20260505063304 | 48 | 144 | 0.0 | 0.0 | 0.00 | 0.08 | 0.00 | 89 | 1005.6 |
| 20260505062304 | 48 | 144 | 0.9 | 2.6 | 0.00 | 0.08 | 0.00 | 89 | 1005.6 |
| 20260505060816 | 48 | 178 | 1.7 | 5.2 | 0.00 | 0.08 | 0.00 | 89 | 1005.6 |
| 20260505055804 | 48 | 198 | 1.7 | 4.3 | 0.00 | 0.08 | 0.08 | 90 | 1005.6 |
| 20260505055304 | 48 | 177 | 2.6 | 4.3 | 0.00 | 0.08 | 0.08 | 90 | 1005.6 |
| 20260505054804 | 48 | 185 | 1.7 | 2.6 | 0.00 | 0.08 | 0.08 | 87 | 1005.6 |
| 20260505053804 | 48 | 183 | 1.7 | 2.6 | 0.00 | 0.08 | 0.08 | 87 | 1005.6 |
| 20260505052304 | 48 | 183 | 0.9 | 2.6 | 0.01 | 0.08 | 0.08 | 87 | 1005.6 |
| 20260505051805 | 48 | 174 | 1.7 | 4.3 | 0.02 | 0.08 | 0.08 | 87 | 1005.6 |
| 20260505050804 | 48 | 219 | 0.0 | 1.7 | 0.02 | 0.08 | 0.08 | 87 | 1005.6 |
| 20260505041305 | 49 | 236 | 1.7 | 2.6 | 0.04 | 0.06 | 0.06 | 87 | 1005.6 |
| 20260505040304 | 49 | 252 | 2.6 | 6.1 | 0.06 | 0.06 | 0.06 | 87 | 1005.6 |
| 20260505035804 | 49 | 260 | 1.7 | 4.3 | 0.06 | 0.06 | 0.06 | 87 | 1005.6 |
| 20260505034804 | 49 | 288 | 3.5 | 7.0 | 0.05 | 0.05 | 0.05 | 85 | 1005.6 |
| 20260505033303 | 49 | 272 | 5.2 | 10.4 | 0.04 | 0.04 | 0.04 | 85 | 1005.6 |
| 20260505032803 | 49 | 279 | 3.5 | 5.2 | 0.03 | 0.03 | 0.03 | 84 | 1005.6 |
| 20260505032304 | 50 | 280 | 2.6 | 7.8 | 0.03 | 0.03 | 0.03 | 81 | 1005.6 |
| 20260505031804 | 50 | 286 | 3.5 | 10.4 | 0.02 | 0.02 | 0.02 | 80 | 1005.6 |
| 20260505030804 | 51 | 331 | 2.6 | 5.2 | 0.01 | 0.01 | 0.01 | 76 | 1010.4 |
| 20260505025803 | 53 | 339 | 3.5 | 6.1 | 0.00 | 0.00 | 0.00 | 68 | 1010.4 |
| 20260505025305 | 53 | 341 | 4.3 | 10.4 | 0.00 | 0.00 | 0.00 | 67 | 1010.4 |
| 20260505024804 | 53 | 358 | 5.2 | 7.0 | 0.00 | 0.00 | 0.00 | 64 | 1010.4 |
| 20260505021804 | 54 | 310 | 4.3 | 7.0 | 0.00 | 0.00 | 0.00 | 63 | 1010.4 |